Content
SEND FEEDBACK

Daily
Averages
Monthly
Summary
Canada

SUDBURY, ONTARIO


Home > North America > Canada > Ontario
Elevation: 1140 feet     Latitude: 46 37N     Longitude: 080 48W

WEATHER
 
SELECT A DAY
Number of Records: 183,923;   Date Range: 1/1/95 - 8/20/14
 
SHARE

PRINT THIS DATA

[ ← Previous Day ]
WEATHER ALMANAC - NOVEMBER 5, 2013
[ Next Day → ]
[ °C ]   °F
Weather ElementAverageHighLow
Temperature40.3 °F46.4 °F (3:00 pm)32 °F (1:00 am)
Dewpoint38.2 °F44.6 °F (9:54 pm)24.8 °F (1:00 am)
Humidity91.8 %100 % (10:00 am)67 % (1:00 am)
Barometer30.28 in30.36 in (1:00 am)30.20 in (11:34 pm)
Wind Speed10.9 mph13.8 mph (2:00 am)
Wind Gust20.7 mph (2:00 am)
Weather ElementAverage
Visibility9 mi
Wind DirectionS (177.9 °)

Weather ElementTotal
Precipitation---
Heating Degree Days25.8 (Base 65)
Averaged from 42 records on November 5, 2013
WEATHER CONDITIONS BREAKOUT
WIND DIRECTION BREAKOUT
WEATHER BY HOUR - NOVEMBER 5, 2013
[ °C ]   °F
Local TimeTemperatureDewpointHumidityBarometerVisibilityWind DirectionWind SpeedGust SpeedPrecipitationEventsConditions
1:00 AM32.0 °F25.0 °F67 %30.36 in15.0 miSSE (160°)12.7 mphOvercast
1:00 AM32.0 °F24.8 °F75 %30.35 in15.0 miSSE (160°)12.7 mphOvercast
2:00 AM32.0 °F24.8 °F75 %30.33 in15.0 miSE (140°)13.8 mph20.7 mphOvercast
3:00 AM32.0 °F24.8 °F75 %30.31 in15.0 miSSE (150°)13.8 mphOvercast
4:00 AM32.0 °F24.8 °F75 %30.31 in15.0 miSSE (150°)13.8 mphOvercast
5:00 AM33.8 °F26.6 °F75 %30.31 in15.0 miSSE (150°)11.5 mphOvercast
6:00 AM33.8 °F26.6 °F75 %30.30 in15.0 miSSE (150°)12.7 mphOvercast
7:00 AM34.0 °F29.0 °F77 %30.30 in19.0 miSSE (160°)11.5 mphRainLight Rain
7:00 AM33.8 °F30.2 °F87 %30.30 in20.0 miSSE (160°)11.5 mphRainLight Rain
8:00 AM35.6 °F32.0 °F87 %30.31 in10.0 miSSE (150°)12.7 mphRainLight Rain
9:00 AM35.6 °F33.8 °F93 %30.32 in3.0 miSSE (160°)8.1 mphRainLight Rain
10:00 AM35.6 °F35.6 °F100 %30.31 in3.0 miSSE (160°)13.8 mphRainLight Rain
11:00 AM37.4 °F37.4 °F100 %30.30 in12.0 miSSE (160°)11.5 mphRainLight Rain
11:12 AM37.4 °F37.4 °F100 %30.30 in12.0 miSSE (160°)12.7 mphOvercast
12:00 PM41.0 °F39.2 °F93 %30.29 in15.0 miSSE (160°)12.7 mphOvercast
12:19 PM41.0 °F39.2 °F93 %30.30 in15.0 miSouth (180°)8.1 mphOvercast
1:00 PM42.8 °F41.0 °F93 %30.28 in15.0 miSouth (180°)10.4 mphOvercast
1:00 PM43.0 °F41.0 °F90 %30.28 in15.0 miSouth (180°)8.1 mphPartly Cloudy
2:00 PM44.6 °F41.0 °F87 %30.27 in15.0 miSouth (190°)12.7 mphOvercast
3:00 PM46.4 °F42.8 °F87 %30.27 in15.0 miSSW (200°)10.4 mphOvercast
3:41 PM46.4 °F42.8 °F87 %30.27 in15.0 miSouth (190°)10.4 mphOvercast
4:00 PM46.4 °F42.8 °F87 %30.26 in15.0 miSouth (190°)10.4 mphOvercast
5:00 PM44.6 °F42.8 °F93 %30.26 in15.0 miSouth (180°)9.2 mphOvercast
5:13 PM44.6 °F42.8 °F93 %30.26 in12.0 miSouth (170°)9.2 mphMostly Cloudy
6:00 PM42.8 °F42.8 °F100 %30.27 in10.0 miSouth (180°)11.5 mphMostly Cloudy
6:43 PM42.8 °F41.0 °F93 %30.27 in6.0 miSouth (190°)10.4 mphMostly Cloudy
6:55 PM42.8 °F42.8 °F100 %30.27 in5.0 miSSW (200°)11.5 mphOvercast
7:00 PM42.8 °F42.8 °F100 %30.28 in5.0 miSSW (200°)10.4 mphOvercast
7:00 PM42.0 °F42.0 °F99 %30.28 in5.0 miSSW (200°)11.5 mphMist
7:13 PM42.8 °F42.8 °F100 %30.27 in4.0 miSSW (200°)11.5 mphOvercast
7:29 PM42.8 °F42.8 °F100 %30.27 in3.0 miSSW (200°)9.2 mphOvercast
7:44 PM42.8 °F42.8 °F100 %30.27 in1.0 miSSW (200°)10.4 mphOvercast
8:00 PM42.8 °F42.8 °F100 %30.27 in0.5 miSouth (190°)12.7 mphFogFog
9:00 PM42.8 °F42.8 °F100 %30.23 in0.6 miSouth (180°)6.9 mphOvercast
9:08 PM42.8 °F42.8 °F100 %30.24 in0.8 miSouth (180°)9.2 mphOvercast
9:54 PM44.6 °F44.6 °F100 %30.24 in1.0 miSSW (200°)9.2 mphOvercast
10:00 PM42.8 °F42.8 °F100 %30.23 in1.2 miSouth (190°)8.1 mphOvercast
10:27 PM42.8 °F42.8 °F100 %30.22 in0.8 miSouth (190°)8.1 mphOvercast
10:49 PM44.6 °F44.6 °F100 %30.22 in0.6 miSSW (200°)10.4 mphOvercast
11:00 PM44.6 °F44.6 °F100 %30.22 in0.6 miSSW (210°)11.5 mphOvercast
11:18 PM44.6 °F44.6 °F100 %30.21 in0.4 miSouth (190°)10.4 mphFogFog
11:34 PM42.8 °F42.8 °F100 %30.20 in0.2 miSouth (180°)10.4 mphFogFog
Hourly data recorded from CYSB, located miles away from Sudbury, Ontario







STORIES FROM OUR PARTNERS